Weather in Florida City

United States     25°27′05″N   80°28′56″W
В апреле 2022 года жителям России запретили посещать сайт meteo.paraplan.net по решению Генеральной прокуратуры. Аудитория сайта уменьшилась в 10 раз. Владельцы сайта не видят смысла в поддержке погодного сервера в таких условиях. Сайт будет закрыт в октябре.
temp.,
°C
wind,
m/s
gust,
m/s
humid.,
%
clouds,
%
prec.,
mm/h
press.,
hPa
HPBL,
m
4 october, tue
tue423:00+25nw116898 0.3 101434
02:00+25n116923 0.3 101315
05:00+23n22785 0.1 101330
08:00+23n368293 0.1 1014204
11:00+27nne43574 0.0 10151118
14:00+30n324596 0.0 10132150
17:00+26ese446391 0.0 1012409
20:00+26e126990 0.5 101454
5 october, wed
wed523:00+25nnw117311 0.9 101534
02:00+23n12795 1.2 101425
05:00+22nnw23835 0.1 101449
08:00+22n36863 0.1 1015169
11:00+28nne34555 0.0 10151090
14:00+30ene545197 0.0 10141711
17:00+27ene666417 0.4 1014992
20:00+25ene48758 1.0 1015332
6 october, thu
thu623:00+25ene587190 0.1 1016375
02:00+25ene587396 0.1 1015462
05:00+25ne4871100 0.0 1015386
08:00+25ene4870100 0.0 1016400
11:00+28ene676094 0.0 10171170
14:00+29ene775839 0.0 10161422
17:00+27ene786030 0.0 10161084
20:00+25ne61070100 0.0 1017673
7 october, fri
fri723:00+25ene610697 0.0 1018550
02:00+25ene597312 0.0 1017355
05:00+25ne4872100 0.0 1017410
08:00+25ne487387 0.0 1018436
11:00+28ene775916 0.0 10181286
14:00+29ene885615 0.0 10171449
17:00+28ene886010 0.0 10161233
20:00+26ne696854 0.0 1017631
8 october, sat
sat823:00+26ne6107191 0.0 1017693
02:00+26ne697263 0.0 1016576
05:00+25ne597646 0.1 1016512
08:00+25ne597820 0.2 1017623
11:00+28ene786880 0.8 10181148
14:00+30ene886311 1.4 10161372
17:00+28ene896982 0.2 10151112
20:00+26ne7117464 0.3 1016757